When you browse on this site, cookies collect data to enhance your experience and personalize the content and advertising you see.
Visit our Privacy Policy to learn more. By continuing to use the site, you agree to this use of cookies and data.
  • In United Kingdom
  • List of Countries
  • For 7 days
  • Water Temperature
  • Weather Map
  • Weather Widgets
  • user-avatar
    Login

    Hourly Weather Dagestanskiye Ogni

    Today, 20 November, Wednesday

    Time Temperature Precipitation Wind Pressure Humidity
    00:00 +9°C° 0 mm 1 mps 765 mmHg 74%
    01:00 +8°C° 0 mm 2 mps 765 mmHg 75%
    02:00 +7°C° 0 mm 2 mps 765 mmHg 77%
    03:00 +7°C° 0 mm 2 mps 765 mmHg 78%
    04:00 +7°C° 0 mm 3 mps 765 mmHg 79%
    05:00 +7°C° 0 mm 3 mps 765 mmHg 81%
    06:00 +7°C° 0 mm 3 mps 765 mmHg 82%
    07:00 +8°C° 0 mm 3 mps 765 mmHg 81%
    08:00 +9°C° 0 mm 3 mps 765 mmHg 80%
    09:00 +9°C° 0 mm 3 mps 765 mmHg 78%
    10:00 +9°C° 0 mm 3 mps 765 mmHg 79%
    11:00 +8°C° 0 mm 4 mps 765 mmHg 80%
    12:00 +8°C° 0 mm 4 mps 765 mmHg 81%
    13:00 +8°C° 0 mm 4 mps 765 mmHg 81%
    14:00 +8°C° 0 mm 4 mps 765 mmHg 80%
    15:00 +8°C° 0 mm 4 mps 765 mmHg 80%
    16:00 +8°C° 0.1 mm 3 mps 765 mmHg 83%
    17:00 +8°C° 0.1 mm 3 mps 766 mmHg 85%
    18:00 +8°C° 0.1 mm 3 mps 766 mmHg 87%
    19:00 +7°C° 0.1 mm 3 mps 766 mmHg 87%
    20:00 +7°C° 0.1 mm 2 mps 767 mmHg 86%
    21:00 +7°C° 0.1 mm 2 mps 767 mmHg 86%
    22:00 +7°C° 0.1 mm 2 mps 767 mmHg 86%
    23:00 +8°C° 0.1 mm 1 mps 767 mmHg 86%

    Tomorrow, 21 November, Thursday

    Time Temperature Precipitation Wind Pressure Humidity
    00:00 +8°C° 0.1 mm 1 mps 766 mmHg 86%
    01:00 +7°C° 0.1 mm 1 mps 767 mmHg 86%
    02:00 +6°C° 0.1 mm 2 mps 767 mmHg 87%
    03:00 +6°C° 0.1 mm 2 mps 767 mmHg 88%
    04:00 +6°C° 0.3 mm 2 mps 767 mmHg 88%
    05:00 +6°C° 0.3 mm 2 mps 767 mmHg 88%
    06:00 +6°C° 0.3 mm 2 mps 767 mmHg 88%
    07:00 +6°C° 0.4 mm 2 mps 767 mmHg 88%
    08:00 +6°C° 0.4 mm 2 mps 767 mmHg 88%
    09:00 +5°C° 0.4 mm 3 mps 768 mmHg 87%
    10:00 +6°C° 0.5 mm 2 mps 768 mmHg 87%
    11:00 +7°C° 0.5 mm 2 mps 768 mmHg 86%
    12:00 +7°C° 0.5 mm 2 mps 767 mmHg 86%
    13:00 +7°C° 0.8 mm 3 mps 768 mmHg 86%
    14:00 +7°C° 0.8 mm 3 mps 768 mmHg 87%
    15:00 +7°C° 0.8 mm 3 mps 768 mmHg 87%
    16:00 +5°C° 1.5 mm 3 mps 768 mmHg 90%
    17:00 +5°C° 1.5 mm 4 mps 769 mmHg 92%
    18:00 +5°C° 1.5 mm 5 mps 769 mmHg 95%
    19:00 +4°C° 1.3 mm 4 mps 769 mmHg 94%
    20:00 +4°C° 1.3 mm 4 mps 770 mmHg 94%
    21:00 +4°C° 1.3 mm 4 mps 770 mmHg 93%
    22:00 +4°C° 1.6 mm 4 mps 770 mmHg 94%
    23:00 +4°C° 1.6 mm 4 mps 771 mmHg 95%

    Day after tomorrow, 22 November, Friday

    Time Temperature Precipitation Wind Pressure Humidity
    00:00 +4°C° 1.6 mm 4 mps 771 mmHg 96%
    01:00 +4°C° 1.9 mm 4 mps 771 mmHg 95%
    02:00 +4°C° 1.9 mm 4 mps 771 mmHg 95%
    03:00 +4°C° 1.9 mm 4 mps 771 mmHg 95%
    04:00 +3°C° 1.8 mm 4 mps 771 mmHg 95%
    05:00 +3°C° 1.8 mm 4 mps 772 mmHg 95%
    06:00 +3°C° 1.8 mm 4 mps 772 mmHg 95%
    07:00 +3°C° 1.2 mm 4 mps 772 mmHg 95%
    08:00 +3°C° 1.2 mm 4 mps 773 mmHg 95%
    09:00 +3°C° 1.2 mm 4 mps 773 mmHg 95%
    10:00 +3°C° 1.2 mm 4 mps 773 mmHg 95%
    11:00 +3°C° 1.2 mm 4 mps 773 mmHg 95%
    12:00 +1°C° 1.2 mm 4 mps 772 mmHg 95%
    13:00 +2°C° 0.5 mm 3 mps 772 mmHg 94%
    14:00 +2°C° 0.5 mm 3 mps 772 mmHg 94%
    15:00 +3°C° 0.5 mm 2 mps 772 mmHg 93%
    16:00 +3°C° 0.2 mm 2 mps 772 mmHg 94%
    17:00 +3°C° 0.2 mm 2 mps 773 mmHg 94%
    18:00 +3°C° 0.2 mm 1 mps 773 mmHg 95%
    19:00 +3°C° 0.2 mm 1 mps 773 mmHg 95%
    20:00 +3°C° 0.2 mm 1 mps 773 mmHg 96%
    21:00 +3°C° 0.2 mm 1 mps 773 mmHg 96%
    22:00 +3°C° 0.2 mm 1 mps 773 mmHg 95%
    23:00 +1°C° 0.2 mm 2 mps 773 mmHg 93%

    23 November, Saturday

    Time Temperature Precipitation Wind Pressure Humidity
    00:00 +1°C° 0.2 mm 2 mps 773 mmHg 91%
    01:00 -1°C° 0.1 mm 2 mps 773 mmHg 88%
    02:00 -1°C° 0.1 mm 2 mps 772 mmHg 85%
    03:00 -2°C° 0.1 mm 2 mps 772 mmHg 81%
    04:00 -2°C° 0.1 mm 2 mps 772 mmHg 78%
    05:00 -2°C° 0.1 mm 2 mps 772 mmHg 75%
    06:00 -2°C° 0.1 mm 2 mps 772 mmHg 72%
    07:00 -1°C° 0 mm 2 mps 772 mmHg 72%
    08:00 0°C° 0 mm 3 mps 772 mmHg 72%
    09:00 +1°C° 0 mm 3 mps 772 mmHg 71%
    10:00 +2°C° 0 mm 3 mps 772 mmHg 74%
    11:00 +3°C° 0 mm 4 mps 771 mmHg 77%
    12:00 +3°C° 0 mm 4 mps 771 mmHg 80%
    13:00 +3°C° 0 mm 4 mps 771 mmHg 81%
    14:00 +3°C° 0 mm 4 mps 771 mmHg 82%
    15:00 +3°C° 0 mm 4 mps 770 mmHg 82%
    16:00 +1°C° 0 mm 4 mps 770 mmHg 81%
    17:00 +1°C° 0 mm 4 mps 770 mmHg 80%
    18:00 +1°C° 0 mm 3 mps 770 mmHg 78%
    19:00 +1°C° 0 mm 3 mps 770 mmHg 76%
    20:00 0°C° 0 mm 3 mps 770 mmHg 74%
    21:00 0°C° 0 mm 3 mps 770 mmHg 72%
    22:00 0°C° 0.1 mm 3 mps 770 mmHg 72%
    23:00 0°C° 0.1 mm 3 mps 770 mmHg 72%

    24 November, Sunday

    Time Temperature Precipitation Wind Pressure Humidity
    00:00 +1°C° 0.1 mm 3 mps 769 mmHg 71%
    01:00 +1°C° 0.1 mm 3 mps 769 mmHg 73%
    02:00 +2°C° 0.1 mm 3 mps 769 mmHg 76%
    03:00 +3°C° 0.1 mm 2 mps 769 mmHg 78%
    04:00 +4°C° 0.2 mm 2 mps 769 mmHg 79%
    05:00 +3°C° 0.2 mm 3 mps 769 mmHg 79%
    06:00 +3°C° 0.2 mm 3 mps 769 mmHg 80%
    07:00 +5°C° 0.1 mm 2 mps 769 mmHg 80%
    08:00 +5°C° 0.1 mm 2 mps 769 mmHg 80%
    09:00 +7°C° 0.1 mm 1 mps 769 mmHg 79%
    10:00 +7°C° 0 mm 1 mps 768 mmHg 80%
    11:00 +7°C° 0 mm 1 mps 768 mmHg 80%
    12:00 +8°C° 0 mm 1 mps 767 mmHg 80%
    13:00 +8°C° 0 mm 1 mps 767 mmHg 79%
    14:00 +8°C° 0 mm 1 mps 767 mmHg 79%
    15:00 +8°C° 0 mm 1 mps 767 mmHg 78%
    16:00 +7°C° 0.1 mm 1 mps 767 mmHg 77%
    17:00 +6°C° 0.1 mm 1 mps 767 mmHg 76%
    18:00 +5°C° 0.1 mm 1 mps 767 mmHg 75%
    19:00 +5°C° 0.1 mm 1 mps 767 mmHg 72%
    20:00 +4°C° 0.1 mm 2 mps 767 mmHg 68%
    21:00 +4°C° 0.1 mm 2 mps 767 mmHg 65%
    22:00 +4°C° 0.1 mm 2 mps 767 mmHg 63%
    23:00 +4°C° 0.1 mm 2 mps 767 mmHg 61%

    25 November, Monday

    Time Temperature Precipitation Wind Pressure Humidity
    00:00 +4°C° 0.1 mm 2 mps 766 mmHg 59%
    01:00 +4°C° 0 mm 2 mps 766 mmHg 59%
    02:00 +4°C° 0.1 mm 2 mps 766 mmHg 59%
    03:00 +4°C° 0.1 mm 2 mps 766 mmHg 59%
    04:00 +4°C° 0 mm 2 mps 765 mmHg 60%
    05:00 +4°C° 0 mm 2 mps 765 mmHg 60%
    06:00 +3°C° 0 mm 2 mps 765 mmHg 61%
    07:00 +4°C° 0 mm 2 mps 765 mmHg 63%
    08:00 +5°C° 0 mm 2 mps 765 mmHg 65%
    09:00 +6°C° 0 mm 2 mps 765 mmHg 67%
    10:00 +7°C° 0 mm 2 mps 765 mmHg 70%
    11:00 +8°C° 0 mm 2 mps 765 mmHg 74%
    12:00 +8°C° 0 mm 3 mps 764 mmHg 77%
    13:00 +8°C° 0 mm 3 mps 764 mmHg 77%
    14:00 +8°C° 0 mm 3 mps 764 mmHg 76%
    15:00 +8°C° 0 mm 3 mps 764 mmHg 75%
    16:00 +6°C° 0 mm 4 mps 764 mmHg 73%
    17:00 +6°C° 0 mm 4 mps 764 mmHg 71%
    18:00 +5°C° 0 mm 4 mps 765 mmHg 69%
    19:00 +5°C° 0 mm 4 mps 765 mmHg 67%
    20:00 +4°C° 0 mm 3 mps 765 mmHg 65%
    21:00 +4°C° 0 mm 3 mps 764 mmHg 63%
    22:00 +4°C° 0 mm 3 mps 764 mmHg 62%
    23:00 +4°C° 0 mm 3 mps 764 mmHg 61%
    Show more